Simultaneous Nadir Overpasses (SNOs) Predictions

Prediction of SNOs between AQUA and NPP Satellite Orbit:

Table of predicted SNOs for the next 14.0 days since TLE Epoch: 5/6/2018
Index Date (AQUA) Time (AQUA) Lat,Lon (AQUA) SZA (AQUA ) Date (NPP) Time (NPP) Lat,Lon (NPP) SZA (NPP ) Distance(km) Time Diff (sec)
1 05/08/2018 22:38:44 75.93, 79.23 80.19 05/08/2018 22:38:24 75.92, 79.20 80.22 1.02 20
2 05/08/2018 23:27:54 -76.74,-110.47 100.78 05/08/2018 23:28:52 -76.73,-110.57 100.80 2.70 58
3 05/11/2018 14:05:57 -75.38, 25.89 99.87 05/11/2018 14:04:47 -75.39, 25.94 99.83 1.74 70
4 05/11/2018 14:55:06 76.22,-163.97 79.16 05/11/2018 14:55:13 76.22,-164.01 79.16 1.18 7
5 05/14/2018 06:22:18 -75.73, 142.75 100.91 05/14/2018 06:21:35 -75.74, 142.80 100.89 1.66 43
6 05/14/2018 07:11:27 76.55, -47.00 78.12 05/14/2018 07:12:01 76.55, -47.02 78.10 0.69 34
7 05/16/2018 22:38:37 -76.16,-100.06 102.02 05/16/2018 22:38:21 -76.17, -99.98 102.03 2.19 16
8 05/16/2018 23:27:47 76.92, 70.17 77.07 05/16/2018 23:28:48 76.92, 70.19 77.02 0.52 61
9 05/19/2018 14:05:53 75.34,-154.23 78.37 05/19/2018 14:04:47 75.34,-154.19 78.41 1.06 66




NCC Satellite Simultaneous Nadir Overpasses (SNOs) Prediction Service
